Regional Weather Roundup
Issued by NWS

Home | Current Version | Previous Version | Graphics & Text | Print | Product List | Glossary On
Versions: 1 2 3 4 5 6 7 8 9 10 11 12 13 14 15 16 17 18 19 20 21 22 23 24 25 26 27 28 29 30 31 32 33 34 35 36 37 38 39 40 41 42 43 44 45 46 47 48 49 50
000
ASUS43 KIND 220309
RWRIN

WEATHER ROUNDUP FOR INDIANA
NATIONAL WEATHER SERVICE INDIANAPOLIS IN
1100 PM EDT TUE OCT 21 2014

NOTE: "FAIR" INDICATES FEW OR NO CLOUDS BELOW 12,000 FEET WITH NO
SIGNIFICANT WEATHER AND/OR OBSTRUCTIONS TO VISIBILITY.

* - STATION DOES NOT REPORT WEATHER SUCH AS PRECIPITATION OR FOG.

+ - STATION NOT QUALITY CONTROLLED BY THE NATIONAL WEATHER SERVICE.
    USE DATA WITH CAUTION...ESPECIALLY DEWPOINT AND RELATIVE
    HUMIDITY OBSERVATIONS.

INZ001>003-010>013-019-020-220400-
NORTHWEST INDIANA

CITY           SKY/WX    TMP DP  RH WIND       PRES   REMARKS
GARY /AIRPORT/ CLOUDY    52  38  60 N8        30.26R
KNOX *+        PTCLDY    42  36  78 NE6       30.24R
LA PORTE +     PTCLDY    42  37  85 CALM      30.26R
MICHIGAN CITY+ CLEAR     37  37 100 CALM      30.26R
MONTICELLO +   PTCLDY    43  38  82 N5        30.23R
RENSSELAER +   CLOUDY    48  41  76 NE8       30.25R
VALPARAISO     CLEAR     41  36  82 NE3       30.26R

$$

LMZ046-743>745-220400-
SOUTHERN LAKE MICHIGAN

STATION/POSITION TIME  TEMP WIND        PRES
                       AIR  DIR/SP/G
                 (UTC) (F)  (DEG/KT/KT) (MB)
MICHIGAN CITY    0300   46   90/  5/  7   N/A

$$

INZ004-005-014>016-021>024-220400-
NORTH CENTRAL INDIANA

CITY           SKY/WX    TMP DP  RH WIND       PRES   REMARKS
GOSHEN         CLEAR     42  37  82 N3        30.24R
LOGANSPORT +   CLOUDY    46  36  66 N8        30.24R
PERU/GRISSOM   CLOUDY    48  39  70 NE15      30.23R
ROCHESTER +    CLOUDY    50  37  62 N3        30.25R
SOUTH BEND     CLEAR     38  33  82 CALM      30.26R
WARSAW +       CLEAR     43  37  81 CALM      30.24R

$$

INZ006>009-017-018-025>027-220400-
NORTHEAST INDIANA

CITY           SKY/WX    TMP DP  RH WIND       PRES   REMARKS
ANGOLA *+      CLOUDY    39  21  48 CALM      30.24R
AUBURN +       CLOUDY    43  34  70 CALM      30.24R
FORT WAYNE     CLOUDY    45  37  73 N6        30.23R
HUNTINGTON +   MOCLDY    45  37  73 NE6       30.22S

$$

INZ028-029-035-036-043>045-051>053-220400-
WEST CENTRAL INDIANA

CITY           SKY/WX    TMP DP  RH WIND       PRES   REMARKS
GREENCASTLE +  PTCLDY    45  39  81 N7        30.22R
LAFAYETTE      CLEAR     42  37  82 N3        30.23R
TERRE HAUTE    CLEAR     47  42  83 N8        30.22R

$$

INZ030>032-037>040-046>048-054>057-064-065-220400-
CENTRAL INDIANA

CITY           SKY/WX    TMP DP  RH WIND       PRES   REMARKS
CP ATTERBURY + CLEAR     45  41  87 CALM      30.19R
FRANKFORT +    CLEAR     42  40  91 NW6       30.24R
GREENWOOD *+   CLOUDY    48  39  71 NE8       30.20R
INDIANAPOLIS   MOCLDY    50  42  74 N9        30.19R
-EAGLE CREEK   CLOUDY    50  42  74 N8        30.20R
KOKOMO *+      CLOUDY    48  36  61 NE8       30.23R
MARION +       CLOUDY    47  34  61 NE9       30.22R
MT COMFORT *+  CLOUDY    48  36  61 NE13      30.20R
SHELBYVILLE    MOCLDY    49  41  74 NE9       30.19R
ZIONSVILLE +   CLOUDY    49  39  69 N7        30.22R

$$

INZ033-034-041-042-049-050-058-059-220400-
EAST CENTRAL INDIANA

CITY           SKY/WX    TMP DP  RH WIND       PRES   REMARKS
MUNCIE         CLOUDY    48  38  68 NE10      30.21R

$$

INZ060-061-067>069-081>083-085>088-220400-
SOUTHWEST INDIANA

CITY           SKY/WX    TMP DP  RH WIND       PRES   REMARKS
EVANSVILLE     CLEAR     48  40  73 N3        30.19R
HUNTINGBURG *+ CLEAR     48  39  71 NE3       30.18R
WASHINGTON +   CLEAR     46  42  88 N3        30.19R

$$

INZ062-063-066-070>080-084-089>092-220400-
SOUTH CENTRAL AND SOUTHEAST INDIANA

CITY           SKY/WX    TMP DP  RH WIND       PRES   REMARKS
BLOOMINGTON    MOCLDY    48  43  82 N5        30.19R
SEYMOUR +      CLEAR     46  41  81 N5        30.18

$$




USA.gov is the U.S. government's official web portal to all federal, state and local government web resources and services.